TKY91K ENVA-LSZH

Flight info

Callsign TKY91K
Flight time N/A
Altitude 37000
Route UTUNA DCT AMRAK/N0442F380 DCT SWALM DCT OMOGI/N0438F390 T721 LAMGO/N0383F270 T721 RILAX
Aircraft A20N/M-SDE2E3FGHIRWXY/LB1

Departure

Time 2026-04-27 13:40
Airport Trondheim Airport, Værnes (ENVA)

Arrival

Time N/A
Airport Zürich Airport (LSZH)
Time Latitude Longitude Altitude Speed Heading
2026-04-27 13:23 63.45376 10.91267 44 ft 0 kts 90°
2026-04-27 13:31 63.45376 10.91263 44 ft 2 kts 90°
2026-04-27 13:31 63.45375 10.91226 44 ft 2 kts 89°
2026-04-27 13:32 63.45375 10.91189 43 ft 2 kts 85°
2026-04-27 13:32 63.45372 10.91152 43 ft 2 kts 45°
2026-04-27 13:32 63.45361 10.91141 41 ft 1 kts 359°
2026-04-27 13:32 63.45359 10.91141 41 ft 0 kts 359°
2026-04-27 13:35 63.45369 10.91141 42 ft 4 kts 359°
2026-04-27 13:35 63.45427 10.91142 43 ft 13 kts
2026-04-27 13:36 63.45543 10.91144 39 ft 20 kts
2026-04-27 13:36 63.45598 10.91302 40 ft 16 kts 92°
2026-04-27 13:36 63.45596 10.91584 39 ft 20 kts 91°
2026-04-27 13:36 63.45595 10.91905 41 ft 21 kts 90°
2026-04-27 13:37 63.45595 10.92223 46 ft 20 kts 90°
2026-04-27 13:37 63.45595 10.92564 46 ft 23 kts 91°
2026-04-27 13:37 63.45594 10.92915 49 ft 23 kts 89°
2026-04-27 13:37 63.45592 10.93284 52 ft 23 kts 90°
2026-04-27 13:38 63.45592 10.93642 54 ft 23 kts 89°
2026-04-27 13:38 63.45639 10.93933 59 ft 14 kts 43°
2026-04-27 13:38 63.45644 10.93943 59 ft 0 kts 43°
2026-04-27 13:38 63.45655 10.93965 59 ft 7 kts 43°
2026-04-27 13:39 63.45744 10.94098 63 ft 12 kts 348°
2026-04-27 13:39 63.45756 10.94027 63 ft 0 kts 271°
2026-04-27 13:39 63.45757 10.93811 59 ft 44 kts 270°
2026-04-27 13:39 63.45759 10.92615 48 ft 106 kts 270°
2026-04-27 13:40 63.45764 10.90575 45 ft 152 kts 270°
2026-04-27 13:40 63.45773 10.88211 596 ft 152 kts 269°
2026-04-27 13:40 63.45773 10.85823 1226 ft 155 kts 271°
2026-04-27 13:40 63.45763 10.83386 1806 ft 160 kts 274°
2026-04-27 13:41 63.45764 10.80747 2146 ft 180 kts 274°
2026-04-27 13:41 63.45770 10.77796 2561 ft 200 kts 273°
2026-04-27 13:41 63.45773 10.74584 3047 ft 218 kts 273°
2026-04-27 13:41 63.45774 10.71147 3856 ft 222 kts 273°
2026-04-27 13:42 63.45772 10.67671 4728 ft 226 kts 273°
2026-04-27 13:42 63.45771 10.64125 5553 ft 230 kts 274°
2026-04-27 13:42 63.45770 10.60516 6387 ft 234 kts 274°
2026-04-27 13:42 63.45600 10.56836 7157 ft 245 kts 254°
2026-04-27 13:43 63.44644 10.53632 7979 ft 256 kts 224°
2026-04-27 13:43 63.43041 10.51773 8723 ft 268 kts 193°
2026-04-27 13:43 63.41147 10.51445 9320 ft 284 kts 177°
2026-04-27 13:43 63.39207 10.52630 9858 ft 295 kts 147°
2026-04-27 13:44 63.37689 10.55639 10534 ft 293 kts 118°
2026-04-27 13:44 63.36936 10.59736 11224 ft 283 kts 90°
2026-04-27 13:44 63.36914 10.64101 11721 ft 289 kts 77°
2026-04-27 13:44 63.37155 10.68719 11961 ft 311 kts 76°
2026-04-27 13:45 63.37356 10.73715 12184 ft 338 kts 84°
2026-04-27 13:45 63.36896 10.78973 12711 ft 362 kts 106°
2026-04-27 13:45 63.35573 10.83850 13422 ft 377 kts 127°
2026-04-27 13:45 63.33529 10.87632 14136 ft 388 kts 148°
2026-04-27 13:46 63.30992 10.89802 14768 ft 395 kts 169°
2026-04-27 13:46 63.28259 10.90080 15395 ft 395 kts 189°
2026-04-27 13:46 63.25528 10.89132 16011 ft 398 kts 192°
2026-04-27 13:46 63.22767 10.88292 16640 ft 403 kts 188°
2026-04-27 13:47 63.19943 10.87930 17282 ft 409 kts 183°
2026-04-27 13:47 63.17080 10.87960 17900 ft 414 kts 180°
2026-04-27 13:47 63.14192 10.88054 18521 ft 416 kts 185°
2026-04-27 13:47 63.11309 10.87362 19077 ft 416 kts 194°
2026-04-27 13:48 63.08505 10.85809 19616 ft 417 kts 200°
2026-04-27 13:48 63.05704 10.84066 20173 ft 419 kts 200°
2026-04-27 13:48 63.02882 10.82318 20708 ft 423 kts 200°
2026-04-27 13:48 63.00031 10.80565 21230 ft 426 kts 200°
2026-04-27 13:49 62.97162 10.78811 21728 ft 430 kts 200°
2026-04-27 13:49 62.94314 10.77076 22235 ft 433 kts 200°
2026-04-27 13:49 62.91401 10.75307 22779 ft 436 kts 200°
2026-04-27 13:49 62.88468 10.73530 23299 ft 439 kts 200°
2026-04-27 13:50 62.85511 10.71741 23815 ft 442 kts 199°
2026-04-27 13:50 62.82477 10.70324 24271 ft 449 kts 191°
2026-04-27 13:50 62.79342 10.69728 24734 ft 453 kts 187°
2026-04-27 13:50 62.76188 10.69286 25160 ft 456 kts 187°
2026-04-27 13:51 62.73006 10.68835 25583 ft 458 kts 187°
2026-04-27 13:51 62.69824 10.68373 26000 ft 460 kts 187°
2026-04-27 13:51 62.66621 10.67901 26397 ft 463 kts 187°
2026-04-27 13:51 62.63395 10.67421 26789 ft 465 kts 187°
2026-04-27 13:52 62.60153 10.66938 27171 ft 467 kts 187°
2026-04-27 13:52 62.56903 10.66454 27556 ft 469 kts 187°
2026-04-27 13:52 62.53632 10.65969 27927 ft 472 kts 187°
2026-04-27 13:52 62.50392 10.65489 28269 ft 474 kts 187°
2026-04-27 13:53 62.43774 10.64512 28938 ft 478 kts 187°
2026-04-27 13:53 62.40441 10.64022 29276 ft 480 kts 187°
2026-04-27 13:53 62.37105 10.63533 29595 ft 482 kts 187°
2026-04-27 13:54 62.33753 10.63042 29909 ft 484 kts 187°
2026-04-27 13:54 62.30376 10.62549 30210 ft 486 kts 187°
2026-04-27 13:54 62.27000 10.62058 30514 ft 488 kts 187°
2026-04-27 13:54 62.23601 10.61565 30764 ft 490 kts 187°
2026-04-27 13:55 62.20198 10.61072 31022 ft 491 kts 187°
2026-04-27 13:55 62.16783 10.60579 31253 ft 494 kts 187°
2026-04-27 13:55 62.13350 10.60085 31541 ft 494 kts 187°
2026-04-27 13:55 62.09912 10.59591 31860 ft 494 kts 187°
2026-04-27 13:56 62.06482 10.59099 32211 ft 494 kts 187°
2026-04-27 13:56 62.03052 10.58609 32538 ft 493 kts 187°
2026-04-27 13:56 61.99671 10.58126 32881 ft 492 kts 187°
2026-04-27 13:56 61.96247 10.57638 33209 ft 492 kts 187°
2026-04-27 13:57 61.92830 10.57152 33529 ft 491 kts 187°
2026-04-27 13:57 61.89424 10.56669 33844 ft 490 kts 187°
2026-04-27 13:57 61.86009 10.56186 34139 ft 490 kts 187°
2026-04-27 13:57 61.82608 10.55706 34428 ft 489 kts 187°
2026-04-27 13:58 61.79220 10.55229 34668 ft 488 kts 187°
2026-04-27 13:58 61.75836 10.54753 34919 ft 487 kts 187°
2026-04-27 13:58 61.72446 10.54277 35138 ft 487 kts 187°
2026-04-27 13:58 61.69079 10.53805 35375 ft 486 kts 187°
2026-04-27 13:59 61.65703 10.53333 35599 ft 485 kts 187°
2026-04-27 13:59 61.62335 10.52863 35808 ft 485 kts 187°
2026-04-27 13:59 61.58970 10.52395 36028 ft 484 kts 187°
2026-04-27 13:59 61.55616 10.51929 36222 ft 483 kts 187°
2026-04-27 14:00 61.52299 10.51470 36401 ft 483 kts 186°
2026-04-27 14:00 61.48908 10.51001 36574 ft 483 kts 186°
2026-04-27 14:00 61.45587 10.50543 36763 ft 482 kts 186°
2026-04-27 14:01 61.41416 10.49970 36974 ft 482 kts 186°
2026-04-27 14:01 61.38068 10.49510 37125 ft 482 kts 186°
2026-04-27 14:01 61.34721 10.49052 37284 ft 481 kts 186°
2026-04-27 14:02 61.28033 10.48140 37380 ft 480 kts 186°
2026-04-27 14:02 61.21380 10.47236 37373 ft 480 kts 186°
2026-04-27 14:03 61.14711 10.46335 37367 ft 479 kts 186°
2026-04-27 14:03 61.08046 10.45437 37358 ft 479 kts 186°
2026-04-27 14:04 61.01425 10.44549 37361 ft 480 kts 186°
2026-04-27 14:04 60.94769 10.43660 37360 ft 480 kts 186°
2026-04-27 14:05 60.88104 10.42774 37358 ft 479 kts 186°
2026-04-27 14:05 60.81434 10.41891 37352 ft 480 kts 186°
2026-04-27 14:06 60.74770 10.41013 37350 ft 480 kts 186°
2026-04-27 14:06 60.68104 10.40137 37349 ft 479 kts 186°
2026-04-27 14:07 60.61486 10.39273 37348 ft 479 kts 185°
2026-04-27 14:07 60.54831 10.38407 37350 ft 479 kts 185°
2026-04-27 14:08 60.48184 10.37544 37348 ft 479 kts 185°
2026-04-27 14:08 60.41533 10.36685 37338 ft 477 kts 185°
2026-04-27 14:09 60.34905 10.35833 37340 ft 476 kts 185°
2026-04-27 14:09 60.28293 10.34987 37341 ft 476 kts 185°
2026-04-27 14:10 60.21724 10.34148 37342 ft 475 kts 185°
2026-04-27 14:10 60.15125 10.33309 37338 ft 475 kts 185°
2026-04-27 14:11 60.08538 10.32476 37337 ft 474 kts 185°
2026-04-27 14:11 60.01958 10.31646 37341 ft 474 kts 185°
2026-04-27 14:12 59.95377 10.30820 37338 ft 473 kts 185°
2026-04-27 14:12 59.88795 10.29997 37338 ft 472 kts 185°
2026-04-27 14:13 59.82230 10.29179 37339 ft 472 kts 185°
2026-04-27 14:13 59.75672 10.28366 37338 ft 472 kts 185°
2026-04-27 14:14 59.69121 10.27556 37338 ft 471 kts 185°
2026-04-27 14:14 59.62576 10.26750 37336 ft 471 kts 185°
2026-04-27 14:15 59.56088 10.25955 37336 ft 471 kts 185°
2026-04-27 14:15 59.49550 10.25157 37339 ft 470 kts 185°
2026-04-27 14:16 59.43024 10.24363 37346 ft 470 kts 185°
2026-04-27 14:16 59.36502 10.23572 37349 ft 469 kts 185°
2026-04-27 14:17 59.29980 10.22784 37343 ft 469 kts 185°
2026-04-27 14:17 59.23477 10.22003 37345 ft 469 kts 185°
2026-04-27 14:18 59.16966 10.21223 37350 ft 468 kts 185°
2026-04-27 14:18 59.10455 10.20445 37343 ft 468 kts 184°
2026-04-27 14:19 59.05053 10.19801 37351 ft 468 kts 184°
2026-04-27 14:19 58.98566 10.19033 37352 ft 467 kts 184°
2026-04-27 14:20 58.90989 10.18139 37358 ft 466 kts 184°
2026-04-27 14:20 58.85603 10.17506 37363 ft 466 kts 184°
2026-04-27 14:21 58.79131 10.16749 37363 ft 465 kts 184°
2026-04-27 14:21 58.72675 10.15995 37362 ft 465 kts 184°
2026-04-27 14:22 58.66222 10.15245 37365 ft 464 kts 184°
2026-04-27 14:22 58.59777 10.14499 37365 ft 464 kts 184°
2026-04-27 14:23 58.53361 10.13758 37370 ft 464 kts 184°
2026-04-27 14:23 58.46921 10.13018 37370 ft 463 kts 184°
2026-04-27 14:24 58.40473 10.12279 37373 ft 463 kts 184°
2026-04-27 14:24 58.34027 10.11543 37370 ft 463 kts 184°
2026-04-27 14:25 58.27640 10.10817 37374 ft 463 kts 184°
2026-04-27 14:25 58.21200 10.10087 37375 ft 463 kts 184°
2026-04-27 14:26 58.14763 10.09360 37374 ft 463 kts 184°
2026-04-27 14:26 58.08337 10.08637 37378 ft 463 kts 184°
2026-04-27 14:27 58.01887 10.07914 37375 ft 463 kts 184°
2026-04-27 14:27 57.95456 10.07196 37377 ft 463 kts 184°
2026-04-27 14:28 57.89021 10.06480 37378 ft 463 kts 184°
2026-04-27 14:28 57.82597 10.05767 37374 ft 463 kts 185°
2026-04-27 14:29 57.76209 10.05062 37372 ft 462 kts 185°
2026-04-27 14:29 57.69777 10.04353 37369 ft 462 kts 185°
2026-04-27 14:30 57.63358 10.03649 37369 ft 462 kts 185°
2026-04-27 14:30 57.56934 10.02947 37366 ft 462 kts 185°
2026-04-27 14:31 57.50517 10.02249 37371 ft 462 kts 185°
2026-04-27 14:31 57.44089 10.01550 37374 ft 462 kts 185°
2026-04-27 14:32 57.37676 10.00856 37369 ft 462 kts 185°
2026-04-27 14:32 57.31260 10.00164 37354 ft 462 kts 185°
2026-04-27 14:33 57.24841 9.99474 37349 ft 461 kts 185°
2026-04-27 14:33 57.18436 9.98788 37347 ft 461 kts 185°
2026-04-27 14:34 57.12029 9.98104 37351 ft 461 kts 185°
2026-04-27 14:34 57.05623 9.97424 37348 ft 460 kts 185°
2026-04-27 14:35 56.99258 9.96749 37347 ft 460 kts 185°
2026-04-27 14:35 56.92869 9.96074 37354 ft 459 kts 185°
2026-04-27 14:36 56.86485 9.95402 37351 ft 459 kts 185°
2026-04-27 14:36 56.80112 9.94733 37335 ft 459 kts 185°
2026-04-27 14:37 56.73738 9.94066 37342 ft 458 kts 185°
2026-04-27 14:37 56.67372 9.93403 37338 ft 458 kts 185°
2026-04-27 14:38 56.61047 9.92746 37325 ft 457 kts 185°
2026-04-27 14:38 56.54682 9.92087 37320 ft 457 kts 185°
2026-04-27 14:39 56.48340 9.91433 37330 ft 456 kts 185°
2026-04-27 14:39 56.41979 9.90779 37317 ft 456 kts 185°
2026-04-27 14:40 56.35643 9.90130 37319 ft 456 kts 186°
2026-04-27 14:40 56.29305 9.89482 37314 ft 456 kts 186°
2026-04-27 14:41 56.22976 9.88837 37316 ft 456 kts 186°
2026-04-27 14:41 56.16681 9.88199 37315 ft 456 kts 186°
2026-04-27 14:42 56.10317 9.87556 37317 ft 455 kts 186°
2026-04-27 14:42 56.04017 9.86921 37317 ft 456 kts 186°
2026-04-27 14:43 55.97686 9.86285 37319 ft 456 kts 186°
2026-04-27 14:43 55.91349 9.85650 37317 ft 456 kts 186°
2026-04-27 14:44 55.85002 9.85017 37320 ft 456 kts 186°
2026-04-27 14:44 55.78666 9.84387 37324 ft 456 kts 186°
2026-04-27 14:45 55.72316 9.83757 37327 ft 456 kts 186°
2026-04-27 14:45 55.65972 9.83130 37325 ft 457 kts 186°
2026-04-27 14:46 55.59629 9.82505 37324 ft 456 kts 186°
2026-04-27 14:46 55.53275 9.81881 37323 ft 456 kts 186°
2026-04-27 14:47 55.46974 9.81264 37321 ft 456 kts 186°
2026-04-27 14:47 55.40635 9.80646 37320 ft 456 kts 186°
2026-04-27 14:48 55.34296 9.80030 37318 ft 456 kts 186°
2026-04-27 14:48 55.24788 9.79109 37315 ft 455 kts 186°
2026-04-27 14:49 55.18456 9.78498 37314 ft 455 kts 186°
2026-04-27 14:49 55.12131 9.77889 37313 ft 455 kts 186°
2026-04-27 14:50 55.05852 9.77286 37319 ft 455 kts 186°
2026-04-27 14:50 54.99530 9.76681 37318 ft 455 kts 186°
2026-04-27 14:51 54.93214 9.76079 37317 ft 454 kts 186°
2026-04-27 14:51 54.87929 9.75576 37317 ft 454 kts 186°
2026-04-27 14:52 54.80591 9.74861 37318 ft 454 kts 187°
2026-04-27 14:52 54.74305 9.73940 37314 ft 453 kts 189°
2026-04-27 14:53 54.68010 9.72976 37317 ft 453 kts 188°
2026-04-27 14:53 54.61727 9.72052 37321 ft 453 kts 188°
2026-04-27 14:54 54.55447 9.71145 37324 ft 453 kts 188°
2026-04-27 14:54 54.49197 9.70246 37325 ft 452 kts 189°
2026-04-27 14:55 54.42916 9.69346 37323 ft 452 kts 189°
2026-04-27 14:55 54.36656 9.68451 37298 ft 451 kts 189°
2026-04-27 14:56 54.30392 9.67558 37294 ft 451 kts 189°
2026-04-27 14:56 54.24146 9.66670 37300 ft 451 kts 189°
2026-04-27 14:57 54.17892 9.65785 37297 ft 450 kts 189°
2026-04-27 14:57 54.11688 9.64909 37294 ft 449 kts 189°
2026-04-27 14:58 54.05461 9.64031 37295 ft 449 kts 189°
2026-04-27 14:58 53.99230 9.63157 37287 ft 449 kts 189°
2026-04-27 14:59 53.92979 9.62282 37284 ft 448 kts 189°
2026-04-27 14:59 53.86794 9.61418 37281 ft 447 kts 189°
2026-04-27 15:00 53.80587 9.60554 37279 ft 447 kts 189°
2026-04-27 15:00 53.74386 9.59694 37278 ft 447 kts 189°
2026-04-27 15:01 53.68200 9.58836 37272 ft 447 kts 189°